Simultaneous Nadir Overpasses (SNOs) Predictions

Prediction of SNOs between METOP-B and NOAA-19 Satellite Orbit:

Table of predicted SNOs for the next 14.0 days since TLE Epoch: 9/18/2021
Index Date (METOP-B) Time (METOP-B) Lat,Lon (METOP-B) SZA (METOP-B ) Date (NOAA-19) Time (NOAA-19) Lat,Lon (NOAA-19) SZA (NOAA-19 ) Distance(km) Time Diff (sec)
1 09/19/2021 11:05:40 -80.64,-136.09 99.27 09/19/2021 11:04:36 -80.63,-136.19 99.32 2.36 64
2 09/19/2021 11:56:21 80.64, 31.10 80.73 09/19/2021 11:55:40 80.63, 30.94 80.70 2.98 41
3 09/19/2021 12:47:02 -80.63,-161.57 99.27 09/19/2021 12:46:36 -80.63,-161.60 99.28 1.09 26
4 09/19/2021 13:37:43 80.63, 5.62 80.73 09/19/2021 13:37:40 80.63, 5.53 80.73 1.73 3
5 09/19/2021 14:28:24 -80.63, 172.94 99.26 09/19/2021 14:28:36 -80.62, 172.98 99.25 0.75 12
6 09/19/2021 15:19:05 80.62, -19.86 80.74 09/19/2021 15:19:40 80.63, -19.88 80.76 1.21 35
7 09/19/2021 16:09:46 -80.62, 147.46 99.25 09/19/2021 16:10:36 -80.62, 147.57 99.22 1.92 50
8 09/19/2021 17:00:27 80.61, -45.34 80.75 09/19/2021 17:01:40 80.62, -45.29 80.80 2.06 73
9 09/30/2021 14:00:22 -80.70,-178.82 94.74 09/30/2021 13:59:13 -80.70, 178.55 95.00 47.29 69
10 09/30/2021 14:51:05 80.64, -12.47 85.14 09/30/2021 14:50:13 80.64, -12.38 85.12 1.71 52
11 09/30/2021 15:41:46 -80.65, 155.02 94.83 09/30/2021 15:41:08 -80.64, 154.92 94.87 2.54 38
12 09/30/2021 16:32:27 80.63, -37.95 85.14 09/30/2021 16:32:13 80.63, -37.79 85.15 2.84 14
13 09/30/2021 17:23:08 -80.64, 129.53 94.83 09/30/2021 17:23:08 -80.63, 129.50 94.84 1.26 0
14 09/30/2021 18:13:48 80.65, -63.09 85.20 09/30/2021 18:14:13 80.63, -63.21 85.19 2.66 25
15 09/30/2021 19:04:30 -80.63, 104.05 94.82 09/30/2021 19:05:08 -80.63, 104.08 94.80 0.65 38
16 09/30/2021 19:55:10 80.64, -88.58 85.21 09/30/2021 19:56:13 80.63, -88.62 85.22 1.27 63



Historial Predications of SNOs between METOP-B and NOAA-19
